Regional Weather Roundup
Issued by NWS State College, PA

Home | Current Version | Previous Version | Text Only | Print | Product List | Glossary On
Versions: 1 2 3 4 5 6 7 8 9 10 11 12 13 14 15 16 17 18 19 20 21 22 23 24 25 26 27 28 29 30 31 32 33 34 35 36 37 38 39 40 41 42 43 44 45 46 47 48 49 50
000
ASUS41 KCTP 190210
RWRCTP
PHLRWRCTP ALL

REGIONAL WEATHER ROUNDUP
NATIONAL WEATHER SERVICE STATE COLLEGE PA
1000 PM EDT MON SEP 18 2017

Note: "fair" indicates few or no clouds below 12,000 feet with no
significant weather and/or obstructions to visibility.

* = STATION THAT DOES NOT REPORT PRECIPITATION /E.G. RAIN...SNOW...ETC/
    THUNDER OR FOG.

PAZ002>004-007>009-013>016-020>023-029>032-190300-
WESTERN PENNSYLVANIA

CITY           SKY/WX    TMP DP  RH WIND       PRES   REMARKS
ERIE           CLEAR     66  61  84 CALM      30.05S
MEADVILLE      CLEAR     70  65  84 E6        30.07F
FRANKLIN*      MOCLDY    69  65  86 E3        30.09S
NEW CASTLE     FAIR      67  65  93 CALM      30.06S
BEAVER COUNTY  NOT AVBL
BUTLER*        CLEAR     67  64  90 CALM      30.07S
PITTSBURGH INT CLOUDY    72  64  76 CALM      30.06R
PITTSBURGH     CLEAR     73  62  68 E5        30.06R
INDIANA*       CLEAR     66  64  94 E3        30.11R
LATROBE        MOCLDY    66  66 100 CALM      30.08R
WASHINGTON CO* PTCLDY    63  61  94 CALM      30.06S
$$

PAZ004>006-010>012-017>019-024>028-033>037-041-042-045-046-049>053-190300-
CENTRAL PENNSYLVANIA

CITY           SKY/WX    TMP DP  RH WIND       PRES   REMARKS
BRADFORD       PTCLDY    64  64 100 CALM      30.12R FOG
DUBOIS         PTCLDY    68  62  81 SE6       30.10R
CLEARFIELD     CLEAR     65  64  97 N5        30.10S
JOHNSTOWN      CLEAR     65  61  87 CALM      30.12S
ALTOONA        CLEAR     61  61 100 CALM      30.11R
STATE COLLEGE  NOT AVBL
WILLIAMSPORT   MOCLDY    73  64  73 NE5       30.08R
SELINSGROVE    CLEAR     63  63 100 CALM      30.10R FOG
FT INDIANTOWN  PTCLDY    65  65 100 CALM      30.09S FOG
CAPITAL CITY   CLEAR     67  63  87 CALM      30.09R
HARRISBURG     PTCLDY    69  66  90 CALM      30.08S
YORK           MOCLDY    61  61 100 CALM      30.08S FOG
$$

PAZ038>040-043-044-047-048-054-055-060>062-067>071-190300-
EASTERN PENNSYLVANIA

CITY           SKY/WX    TMP DP  RH WIND       PRES   REMARKS
SCRANTON       CLEAR     69  64  84 CALM      30.12R
MOUNT POCONO   CLOUDY    64  64 100 E8        30.16R
ALLENTOWN      CLEAR     66  62  87 E5        30.10S
QUAKERTOWN*    PTCLDY    64  64 100 CALM      30.11F
READING        CLEAR     69  66  90 CALM      30.08S
LANCASTER      CLEAR     66  65  96 CALM      30.09R FOG
COATESVILLE    CLEAR     68  66  94 CALM      30.10F
POTTSTOWN      CLEAR     65  65 100 NE5       30.10F
BLUE BELL      CLOUDY    68  66  94 CALM      30.09F
DOYLESTOWN     PTCLDY    66  65  96 NE3       30.09F
WILLOW GROVE   NOT AVBL
NORTH PHILA    CLOUDY    73  67  81 NE8       30.09F
PHILADELPHIA   CLOUDY    73  65  75 NE12      30.06F
$$




USA.gov is the U.S. government's official web portal to all federal, state and local government web resources and services.